Zurück zum Katalog

STARLINK-11748

AktivKommunikationVLEO
NORAD 64373·PAYLOAD·🇺🇸 United States

Gestartet Jun 13, 2025 von Cape Canaveral Space Force Station

Loading…

Nächste Überflüge (nächste 24 Stunden)

TLE

AktuellSource: CelesTrak SupGP

Epoche: Sep 15, 2026, 03:57 UTC

1 64373C 25127D   26258.16506944 -.00085167  00000+0 -66167-3 0  2583
2 64373  43.0010  22.8851 0001824 257.6584 222.4111 15.70873907    12

Verfolge STARLINK-11748 in Echtzeit mit AllMySat

Download on the App Store